User: anonymous   Login
Location: Days
(41.3591°N, 106.7339°W)
Time: 07:51:28
(UTC+00:00)
Language:

UNISAT 6 - Orbit

View from above orbital plane
View from above orbital plane
View from above satellite
View from above satellite

Ground track
Ground track

The orbit data is extracted from the following two-line orbital elements,

1 40012U 14033C   22175.77894373  .00001111  00000-0  16812-3 0  9998
2 40012  97.6618   3.3512 0058554 134.3244 226.2788 14.74923982431066
Epoch (UTC): 24 June 2022 18:41:40
Eccentricity: 0.0058554
inclination: 97.6618°
perigee height: 604 km
apogee height: 686 km
right ascension of ascending node: 3.3512°
argument of perigee: 134.3244°
revolutions per day: 14.74923982
mean anomaly at epoch: 226.2788°
orbit number at epoch: 43106

The dashed part of the orbit path shows where the satellite is in the earth's shadow,  

DLR